User: anonymous   Login
Location: Pine Mountain Observatory
(43.7910°N, 120.9377°W)
Time: 18:48:40
(UTC-08:00)
Language:

IDEFIX/ARIANE 42P - Orbit

View from above orbital plane
View from above orbital plane
View from above satellite
View from above satellite

Ground track
Ground track

The orbit data is extracted from the following two-line orbital elements,

1 27422U 02021B   16340.87028594 -.00000042  00000-0 -75638-6 0  9992
2 27422  98.2277 345.8789 0013500  89.9830 270.2900 14.29252900759065
Epoch (UTC): 05 December 2016 20:53:12
Eccentricity: 0.0013500
inclination: 98.2277°
perigee height: 784 km
apogee height: 804 km
right ascension of ascending node: 345.8789°
argument of perigee: 89.9830°
revolutions per day: 14.29252900
mean anomaly at epoch: 270.2900°
orbit number at epoch: 75906

The dashed part of the orbit path shows where the satellite is in the earth's shadow,  

DLR